Volver al catálogo

STARLINK-31454

ActivoComunicacionesVLEO
NORAD 59014·PAYLOAD·🇺🇸 United States

Lanzado Feb 23, 2024 desde Vandenberg Space Force Base

Loading…

Próximos Pases (próximas 24 horas)

TLE

ActualizadoSource: CelesTrak SupGP

Época: Sep 14, 2026, 22:40 UTC

1 59014C 24036S   26257.94493056  .00054914  00000+0  17663-2 0  2570
2 59014  53.1562 278.7734 0001102  91.9690 246.3081 15.31666824    16

Sigue STARLINK-31454 en tiempo real con AllMySat

Download on the App Store